Home   Weather   Bruck an der Mur   Past weeks

Flag for Austria Past Weather in Bruck an der Mur, Styria, Austria — Yesterday and Last 2 Weeks

Now
27 °F

Passing clouds.


Feels Like: 27 °F
Forecast: 37 / 52 °F
Wind: No wind

Location: Zeltweg

Current Time: Feb 21, 2017 at 6:16:19 am

Latest Report: Feb 21, 2017 at 4:50 am


Visibility: 6 mi

Pressure: 29.98 "Hg

Humidity: 93%

Dew Point: 25 °F

Location of Bruck an der MurLocation

Past Weather in Bruck an der Mur — Graph

°F

Bruck an der Mur Temperature Yesterday

Maximum temperature yesterday: 45 °F (at 3:20 pm)
Minimum temperature yesterday: 28 °F (at 3:50 am)
Average temperature yesterday: 35 °F

High & Low Weather Summary for the Past Weeks

 TemperatureHumidityPressure
High50 °F (Feb 15, 3:50 pm)100% (Feb 6, 4:50 am)30.60 "Hg (Feb 6, 4:50 am)
Low23 °F (Feb 14, 5:50 am)46% (Feb 19, 3:20 pm)29.65 "Hg (Feb 6, 4:50 am)
Average34 °F80%30.24 "Hg
* Reported Feb 6 4:50 am — Feb 21 4:50 am, Bruck an der Mur, Weather by CustomWeather, © 2017

Note: Actual official high and low records may vary slightly from our data, if they occured in-between our weather recording intervals... More about our weather records

Advertising

Bruck an der Mur Weather History for the Previous 24 Hours

Scroll right to see more
 ConditionsComfort  
Time TempWeatherWind HumidityBarometerVisibility
4:50 am
Tue, Feb 21
27 °FPassing clouds.No wind93%29.98 "Hg6 mi
9:50 pm
Mon, Feb 20
30 °FOvercast.No wind86%30.07 "Hg6 mi
8:50 pm30 °FOvercast.No wind86%30.09 "Hg6 mi
7:50 pm30 °FPassing clouds.No wind86%30.09 "Hg6 mi
6:50 pm34 °FClear.2 mph81%30.09 "Hg12 mi
5:50 pm37 °FPassing clouds.2 mph75%30.09 "Hg19 mi
5:20 pm41 °FPassing clouds.3 mph66%30.09 "Hg19 mi
4:20 pm45 °FPassing clouds.5 mph53%30.09 "Hg19 mi
3:50 pm45 °FScattered clouds.3 mph53%30.09 "Hg19 mi
3:20 pm45 °FPartly sunny.2 mph53%30.12 "Hg19 mi
2:50 pm43 °FPartly sunny.2 mph61%30.12 "Hg19 mi
2:20 pm41 °FPartly sunny.3 mph66%30.12 "Hg19 mi
1:50 pm41 °FPartly sunny.3 mph66%30.12 "Hg19 mi
1:20 pm41 °FPartly sunny.2 mph66%30.12 "Hg19 mi
12:50 pm39 °FPartly sunny.2 mph65%30.15 "Hg19 mi
12:20 pm39 °FPartly sunny.2 mph65%30.15 "Hg19 mi
11:50 am37 °FPartly sunny.2 mph70%30.15 "Hg16 mi
11:20 am37 °FPartly sunny.1 mph70%30.27 "Hg16 mi
10:50 am36 °FPartly sunny.1 mph75%30.18 "Hg16 mi
10:20 am34 °FPartly sunny.1 mph81%30.18 "Hg16 mi
9:50 am32 °FPartly sunny.1 mph87%30.18 "Hg12 mi
9:20 am32 °FPartly sunny.3 mph87%30.18 "Hg12 mi
8:50 am32 °FPartly sunny.1 mph87%30.18 "Hg12 mi
8:20 am30 °FPartly sunny.2 mph86%30.18 "Hg12 mi
7:50 am30 °FPartly sunny.1 mph86%30.18 "Hg12 mi
7:20 am30 °FPartly sunny.1 mph86%30.15 "Hg9 mi
6:50 am30 °FPassing clouds.1 mph86%30.15 "Hg9 mi
Weather by CustomWeather, © 2017

See weather overviewHow to use our weather pages